When you browse on this site, cookies collect data to enhance your experience and personalize the content and advertising you see.
Visit our Privacy Policy to learn more. By continuing to use the site, you agree to this use of cookies and data.
  • In Österreich
  • Länderverzeichnis
  • Für 7 Tage
  • Wassertemperatur
  • Wetterkarte
  • News
  • Widgets
  • user-avatar
    Anmelden

    Stündliche Wetter Atotonilco el Grande

    Heute, 25 Januar, Samstag

    Zeit Temperatur Niederschläge Wind Luftdruck Luftfeuchtigkeit
    00:00 +12°C° 0 mm 1 m/S 593 mmHg 93%
    01:00 +11°C° 0 mm 1 m/S 592 mmHg 93%
    02:00 +11°C° 0 mm 1 m/S 592 mmHg 93%
    03:00 +10°C° 0 mm 0 m/S 592 mmHg 92%
    04:00 +10°C° 0 mm 0 m/S 592 mmHg 92%
    05:00 +10°C° 0 mm 0 m/S 592 mmHg 91%
    06:00 +11°C° 0 mm 0 m/S 593 mmHg 86%
    07:00 +12°C° 0 mm 0 m/S 594 mmHg 82%
    08:00 +12°C° 0 mm 0 m/S 595 mmHg 77%
    09:00 +15°C° 0 mm 1 m/S 595 mmHg 68%
    10:00 +18°C° 0 mm 1 m/S 596 mmHg 59%
    11:00 +20°C° 0 mm 1 m/S 596 mmHg 50%
    12:00 +20°C° 0 mm 2 m/S 596 mmHg 47%
    13:00 +21°C° 0 mm 2 m/S 595 mmHg 45%
    14:00 +21°C° 0 mm 3 m/S 595 mmHg 43%
    15:00 +20°C° 0.1 mm 3 m/S 594 mmHg 52%
    16:00 +18°C° 0.1 mm 2 m/S 593 mmHg 62%
    17:00 +16°C° 0.1 mm 2 m/S 593 mmHg 71%
    18:00 +16°C° 0 mm 1 m/S 593 mmHg 76%
    19:00 +15°C° 0 mm 1 m/S 593 mmHg 80%
    20:00 +13°C° 0 mm 0 m/S 593 mmHg 85%
    21:00 +12°C° 0 mm 0 m/S 593 mmHg 83%
    22:00 +13°C° 0 mm 1 m/S 593 mmHg 82%
    23:00 +13°C° 0 mm 1 m/S 593 mmHg 81%

    Morgen, 26 Januar, Sonntag

    Zeit Temperatur Niederschläge Wind Luftdruck Luftfeuchtigkeit
    00:00 +12°C° 0 mm 1 m/S 593 mmHg 81%
    01:00 +12°C° 0 mm 1 m/S 592 mmHg 80%
    02:00 +12°C° 0 mm 1 m/S 592 mmHg 80%
    03:00 +12°C° 0 mm 1 m/S 592 mmHg 79%
    04:00 +11°C° 0 mm 1 m/S 592 mmHg 78%
    05:00 +11°C° 0 mm 1 m/S 591 mmHg 77%
    06:00 +12°C° 0 mm 1 m/S 593 mmHg 70%
    07:00 +14°C° 0 mm 1 m/S 594 mmHg 63%
    08:00 +16°C° 0 mm 1 m/S 595 mmHg 57%
    09:00 +17°C° 0 mm 2 m/S 595 mmHg 50%
    10:00 +19°C° 0 mm 2 m/S 595 mmHg 43%
    11:00 +20°C° 0 mm 2 m/S 596 mmHg 37%
    12:00 +20°C° 0 mm 3 m/S 595 mmHg 37%
    13:00 +20°C° 0 mm 3 m/S 594 mmHg 38%
    14:00 +20°C° 0 mm 3 m/S 594 mmHg 38%
    15:00 +19°C° 0.2 mm 2 m/S 594 mmHg 44%
    16:00 +18°C° 0.2 mm 2 m/S 593 mmHg 51%
    17:00 +18°C° 0.2 mm 1 m/S 593 mmHg 57%
    18:00 +16°C° 0.1 mm 1 m/S 593 mmHg 61%
    19:00 +15°C° 0.1 mm 1 m/S 593 mmHg 66%
    20:00 +15°C° 0.1 mm 1 m/S 593 mmHg 70%
    21:00 +14°C° 0.1 mm 1 m/S 593 mmHg 73%
    22:00 +13°C° 0.1 mm 1 m/S 593 mmHg 76%
    23:00 +13°C° 0.1 mm 1 m/S 592 mmHg 79%

    übermorgen, 27 Januar, Montag

    Zeit Temperatur Niederschläge Wind Luftdruck Luftfeuchtigkeit
    00:00 +11°C° 0 mm 0 m/S 592 mmHg 80%
    01:00 +11°C° 0 mm 0 m/S 591 mmHg 82%
    02:00 +10°C° 0 mm 0 m/S 591 mmHg 84%
    03:00 +10°C° 0 mm 0 m/S 591 mmHg 85%
    04:00 +9°C° 0 mm 0 m/S 591 mmHg 86%
    05:00 +9°C° 0 mm 0 m/S 591 mmHg 87%
    06:00 +10°C° 0 mm 0 m/S 592 mmHg 80%
    07:00 +12°C° 0 mm 0 m/S 593 mmHg 73%
    08:00 +14°C° 0 mm 1 m/S 594 mmHg 65%
    09:00 +16°C° 0 mm 1 m/S 594 mmHg 56%
    10:00 +18°C° 0 mm 2 m/S 595 mmHg 46%
    11:00 +20°C° 0 mm 3 m/S 595 mmHg 36%
    12:00 +21°C° 0 mm 3 m/S 595 mmHg 33%
    13:00 +21°C° 0 mm 3 m/S 594 mmHg 29%
    14:00 +22°C° 0 mm 3 m/S 594 mmHg 25%
    15:00 +20°C° 0 mm 3 m/S 593 mmHg 37%
    16:00 +19°C° 0 mm 3 m/S 592 mmHg 48%
    17:00 +17°C° 0 mm 2 m/S 592 mmHg 60%
    18:00 +16°C° 0 mm 2 m/S 592 mmHg 66%
    19:00 +14°C° 0 mm 2 m/S 592 mmHg 73%
    20:00 +13°C° 0 mm 1 m/S 592 mmHg 79%
    21:00 +13°C° 0 mm 1 m/S 591 mmHg 73%
    22:00 +13°C° 0 mm 1 m/S 591 mmHg 66%
    23:00 +13°C° 0 mm 1 m/S 591 mmHg 60%

    28 Januar, Dienstag

    Zeit Temperatur Niederschläge Wind Luftdruck Luftfeuchtigkeit
    00:00 +12°C° 0 mm 1 m/S 591 mmHg 59%
    01:00 +12°C° 0 mm 1 m/S 590 mmHg 57%
    02:00 +11°C° 0 mm 1 m/S 590 mmHg 56%
    03:00 +11°C° 0 mm 1 m/S 590 mmHg 56%
    04:00 +11°C° 0 mm 1 m/S 590 mmHg 55%
    05:00 +10°C° 0 mm 1 m/S 590 mmHg 55%
    06:00 +12°C° 0 mm 1 m/S 591 mmHg 50%
    07:00 +14°C° 0 mm 1 m/S 592 mmHg 46%
    08:00 +15°C° 0 mm 1 m/S 593 mmHg 41%
    09:00 +18°C° 0 mm 1 m/S 594 mmHg 36%
    10:00 +20°C° 0 mm 1 m/S 594 mmHg 31%
    11:00 +22°C° 0 mm 1 m/S 595 mmHg 25%
    12:00 +22°C° 0 mm 1 m/S 594 mmHg 25%
    13:00 +21°C° 0 mm 2 m/S 594 mmHg 24%
    14:00 +23°C° 0 mm 2 m/S 593 mmHg 24%
    15:00 +20°C° 0 mm 3 m/S 593 mmHg 38%
    16:00 +18°C° 0 mm 3 m/S 592 mmHg 52%
    17:00 +16°C° 0 mm 3 m/S 592 mmHg 66%
    18:00 +14°C° 0.1 mm 3 m/S 592 mmHg 73%
    19:00 +13°C° 0.1 mm 3 m/S 592 mmHg 80%
    20:00 +13°C° 0.1 mm 2 m/S 593 mmHg 87%
    21:00 +12°C° 0.1 mm 2 m/S 593 mmHg 89%
    22:00 +12°C° 0.1 mm 2 m/S 593 mmHg 90%
    23:00 +10°C° 0.1 mm 2 m/S 593 mmHg 92%

    29 Januar, Mittwoch

    Zeit Temperatur Niederschläge Wind Luftdruck Luftfeuchtigkeit
    00:00 +10°C° 0 mm 2 m/S 592 mmHg 91%
    01:00 +9°C° 0 mm 2 m/S 592 mmHg 91%
    02:00 +8°C° 0 mm 2 m/S 591 mmHg 90%
    03:00 +8°C° 0 mm 2 m/S 591 mmHg 88%
    04:00 +7°C° 0 mm 2 m/S 591 mmHg 86%
    05:00 +7°C° 0 mm 2 m/S 591 mmHg 85%
    06:00 +7°C° 0 mm 2 m/S 591 mmHg 82%
    07:00 +8°C° 0 mm 1 m/S 592 mmHg 80%
    08:00 +9°C° 0 mm 1 m/S 592 mmHg 77%
    09:00 +11°C° 0 mm 1 m/S 593 mmHg 69%
    10:00 +13°C° 0 mm 1 m/S 594 mmHg 61%
    11:00 +16°C° 0 mm 2 m/S 594 mmHg 52%
    12:00 +16°C° 0 mm 2 m/S 594 mmHg 51%
    13:00 +17°C° 0 mm 2 m/S 593 mmHg 49%
    14:00 +17°C° 0 mm 2 m/S 592 mmHg 47%
    15:00 +16°C° 0 mm 2 m/S 592 mmHg 55%
    16:00 +14°C° 0 mm 2 m/S 591 mmHg 63%
    17:00 +12°C° 0 mm 2 m/S 590 mmHg 71%
    18:00 +12°C° 0 mm 2 m/S 590 mmHg 73%
    19:00 +11°C° 0 mm 1 m/S 590 mmHg 74%
    20:00 +10°C° 0 mm 1 m/S 591 mmHg 75%
    21:00 +10°C° 0 mm 1 m/S 591 mmHg 73%
    22:00 +10°C° 0 mm 1 m/S 591 mmHg 71%
    23:00 +10°C° 0 mm 1 m/S 590 mmHg 69%

    30 Januar, Donnerstag

    Zeit Temperatur Niederschläge Wind Luftdruck Luftfeuchtigkeit
    00:00 +10°C° 0 mm 1 m/S 590 mmHg 70%
    01:00 +10°C° 0 mm 1 m/S 589 mmHg 71%
    02:00 +9°C° 0 mm 1 m/S 589 mmHg 72%
    03:00 +9°C° 0 mm 1 m/S 589 mmHg 72%
    04:00 +8°C° 0 mm 2 m/S 589 mmHg 72%
    05:00 +8°C° 0 mm 2 m/S 589 mmHg 72%
    06:00 +10°C° 0 mm 2 m/S 590 mmHg 65%
    07:00 +12°C° 0 mm 2 m/S 591 mmHg 57%
    08:00 +14°C° 0 mm 2 m/S 592 mmHg 50%
    09:00 +15°C° 0 mm 4 m/S 592 mmHg 42%
    10:00 +17°C° 0 mm 6 m/S 593 mmHg 35%
    11:00 +20°C° 0 mm 8 m/S 593 mmHg 27%
    12:00 +21°C° 0 mm 8 m/S 593 mmHg 24%
    13:00 +21°C° 0 mm 9 m/S 593 mmHg 21%
    14:00 +22°C° 0 mm 9 m/S 592 mmHg 18%
    15:00 +20°C° 0 mm 8 m/S 592 mmHg 21%
    16:00 +19°C° 0 mm 6 m/S 591 mmHg 24%
    17:00 +16°C° 0 mm 5 m/S 591 mmHg 27%
    18:00 +15°C° 0 mm 4 m/S 591 mmHg 29%
    19:00 +14°C° 0 mm 3 m/S 591 mmHg 31%
    20:00 +13°C° 0 mm 3 m/S 591 mmHg 33%
    21:00 +13°C° 0 mm 2 m/S 591 mmHg 35%
    22:00 +13°C° 0 mm 2 m/S 591 mmHg 37%
    23:00 +12°C° 0 mm 1 m/S 592 mmHg 40%
    Mehr zeigen